User: anonymous   Login
Location: Famechon
(49.7599°N, 2.0615°E)
Time: 22:23:59
(UTC+00:00)
Language:

FENGYUN 1C DEB - Orbit

View from above orbital plane
View from above orbital plane
View from above satellite
View from above satellite

Ground track
Ground track

The orbit data is extracted from the following two-line orbital elements,

1 30167U 99025TY  24056.86238334  .00002323  00000-0  60099-3 0  9993
2 30167  99.0394  95.2937 0152105 311.7155 224.8592 14.44290931898762
Epoch (UTC): 25 February 2024 20:41:49
Eccentricity: 0.0152105
inclination: 99.0394°
perigee height: 636 km
apogee height: 852 km
right ascension of ascending node: 95.2937°
argument of perigee: 311.7155°
revolutions per day: 14.44290931
mean anomaly at epoch: 224.8592°
orbit number at epoch: 89876

The dashed part of the orbit path shows where the satellite is in the earth's shadow,  

DLR